Other Public Products
Issued by NWS Grand Forks, ND

Home | Current Version | Previous Version | Text Only | Print | Product List | Glossary Off
Versions: 1 2 3 4 5 6 7 8 9 10 11 12 13 14 15 16 17 18 19 20 21 22 23 24 25 26 27 28 29 30 31 32 33 34 35 36 37 38 39 40 41 42 43 44 45 46 47 48 49 50

000
FPUS83 KFGF 251310
OPUFGF
PRAIRIE TO PINES WEATHER ROUNDUP
NATIONAL WEATHER SERVICE EASTERN NORTH DAKOTA/GRAND FORKS ND
800 AM CDT SAT OCT 25 2014

 **SATELLITE DATA USED TO AUGMENT SKY COVER AT AUTOMATED STATIONS**
 *****  WEATHER ACROSS EASTERN NORTH DAKOTA  *****

CITY           SKY/WX    TMP DP  RH WIND       PRES   REMARKS
GRAND FORKS    CLEAR     39  32  76 W7        30.04R
GRAND FORKS AF CLEAR     38  32  78 NW8       30.05R
GRAND CITY NWS   N/A     37 N/A N/A W7          N/A
BUXTON         NOT AVBL
DEVILS LAKE    CLEAR     37  28  70 W12       30.06R
FARGO          CLEAR     40  31  70 W10       30.06R
WAHPETON ARPT  SUNNY     36  28  75 W8        30.08S
$$

 *****  WEATHER ACROSS CENTRAL AND WESTERN NORTH DAKOTA  *****

CITY           SKY/WX    TMP DP  RH WIND       PRES   REMARKS
JAMESTOWN      PTCLDY    38  32  79 NW7       30.09S
BISMARCK       PTCLDY    36  30  79 SE3       30.14R
MINOT          PTCLDY    36  29  75 SW8       30.10S
MINOT AFB      PTCLDY    31  28  90 W10       30.09S WCI  22
GARRISON         N/A     38  32  79 CALM      30.12R
WILLISTON      MOCLDY    34  28  79 CALM      30.12R
DICKINSON      MOCLDY    33  27  78 SW7       30.12R
HETTINGER      PTCLDY    30  25  81 W3        30.16R
$$

 *****  OTHER OBSERVATIONS NORTHEAST NORTH DAKOTA  *****

CITY           SKY/WX    TMP DP  RH WIND       PRES   REMARKS
WALHALLA         N/A     41  30  65 W8        30.02R
LANGDON        FAIR      32  27  80 W10       30.03R WCI  24
CAVALIER       FAIR      41  30  65 W9        30.02R
GRAFTON        FAIR      41  32  70 W14       30.02R
CANDO          FAIR      32  30  93 W10       30.07S WCI  24
FORT TOTTEN      N/A     37  31  79 W6        29.95S
ROLLA          FAIR      41  25  52 NW12      30.06R
RUGBY          FAIR      28  27  93 W8        30.09R WCI  20
 ***** THE ABOVE OBSERVATIONS ARE NON NWS ARE NOT QUALITY
        CONTROLLED AND MAY MIS-REPORT RAIN FOR SNOW...
$$

 *****  OTHER OBSERVATIONS SOUTHEAST NORTH DAKOTA *****

CITY           SKY/WX    TMP DP  RH WIND       PRES   REMARKS
COOPERSTOWN    NOT AVBL
VALLEY CITY    PTSUNNY   39  32  75 W12       30.09R
OAKES            N/A     45  37  76 W8        30.11R
GWINNER        MOSUNNY   48  32  53 NW10G16   30.11R
SHEYENNE NWR     N/A     40  34  78 NW5       29.95
BUFFALO        NOT AVBL
WYNDMERE         N/A     45  34  65 W7          N/A
 ***** THE ABOVE OBSERVATIONS ARE NON NWS ARE NOT QUALITY
       CONTROLLED AND MAY MIS-REPORT RAIN FOR SNOW...
$$

  *****  WEATHER ACROSS NORTHERN MINNESOTA  *****

CITY           SKY/WX    TMP DP  RH WIND       PRES   REMARKS
FLAG ISLAND    CLEAR     43  32  65 W18G24    29.87R
WARROAD          N/A     37  32  81 W13       29.93
ROSEAU         CLEAR     39  32  75 W9        29.94R
HALLOCK        CLEAR     36  30  80 W8        29.99R
THF RVR FALLS  CLEAR     39  30  70 W14       30.00R
HALSTAD          N/A     41  32  70 W12         N/A
FOSSTON        CLEAR     34  28  80 SW6       30.02R
BAUDETTE       CLEAR     42  31  64 W8G17     29.90R
WASKISH        CLEAR     45  36  70 W17G23    29.93S
CROOKSTON      CLEAR     39  32  75 W10       30.04R
$$
  *****  WEATHER ACROSS CENTRAL AND WEST MINNESOTA  *****

CITY           SKY/WX    TMP DP  RH WIND       PRES   REMARKS
BEMIDJI        CLEAR     39  32  73 W9        29.97S
PARK RAPIDS    CLEAR     39  31  72 W12       30.00R
WADENA         CLEAR     41  32  70 W7        30.03R
DETROIT LAKES  CLEAR     41  34  75 NW12      30.04R
MOORHEAD       CLEAR     45  34  65 W9        30.07R
FERGUS FALLS   CLEAR     36  28  75 W5        30.09R
ELBOW LAKE     FAIR      40  33  75 NW6       30.07R
MORRIS MN      MOCLDY    48  36  61 NW8       30.07R
STAPLES        CLEAR     41  32  70 W8        30.02S
WHEATON        MOCLDY    46  34  61 W6        30.11R
$$
  *****  WEATHER ELSEWHERE ACROSS MINNESOTA  *****

CITY           SKY/WX    TMP DP  RH WIND       PRES   REMARKS
DULUTH         CLEAR     47  32  56 W16       29.88R
INTRNTL FALLS  CLEAR     40  31  70 W12       29.86R
ELY            CLEAR     43  32  65 W14G22    29.83R
CLOQUET        CLEAR     46  30  53 W12G18    29.91R
BRAINERD       CLEAR     44  33  65 W8        30.00R
HIBBING        CLEAR     45  30  55 NW10      29.90R
ALEXANDRIA     PTCLDY    43  33  68 NW9       30.07R
SAINT CLOUD    CLEAR     49  34  56 W10       30.02R
MINNEAPOLIS    PTCLDY    51  34  52 W10       30.00R
$$

  *****  WEATHER ACROSS SOUTH DAKOTA  *****

CITY           SKY/WX    TMP DP  RH WIND       PRES   REMARKS
SIOUX FALLS    PTCLDY    42  38  85 CALM      30.11R
BROOKINGS      NOT AVBL
WATERTOWN      MOCLDY    44  37  76 NW3       30.10S
HURON          PTCLDY    40  35  83 NW6       30.12R
SISSETON         N/A     51  33  50 N8        30.09R
ABERDEEN       CLEAR     38  31  76 W5        30.13R
MITCHELL       CLEAR     43  38  82 W5        30.13R
PIERRE         CLEAR     41  34  76 W6        30.14R
MOBRIDGE       CLEAR     41  34  76 N8        30.12R
RAPID CITY     CLEAR     35  29  78 NW5       30.16S
$$

  *****  SOME WEATHER IN NEARBY STATES *****

CITY           SKY/WX    TMP DP  RH WIND       PRES   REMARKS
GLASGOW MT     MOCLDY    38  30  73 E5        30.08F
GREAT FALLS MT PTCLDY    39  37  92 E5        29.97F
CHEYENNE WY    CLEAR     39  23  52 W12       30.26R
SCOTTSBLUFF NE CLEAR     37  32  82 CALM      30.17R
OMAHA NE       CLEAR     47  45  93 N7        30.09R
DES MOINES IA  CLEAR     54  42  64 N6        30.06R
DAVENPORT IA   FOG       50  49  96 NW7       30.00R VSB<1/4
CHICAGO IL     PTCLDY    55  53  93 W6        29.91R FOG
EAU CLAIRE WI  CLEAR     43  37  79 W6        29.95R
LA CROSSE WI   PTCLDY    46  45  96 SE5       29.96R FOG
$$

  *****  SOME NATIONAL WEATHER *****

CITY           SKY/WX    TMP DP  RH WIND       PRES   REMARKS
LA GUARDIA NY  MOSUNNY   54  37  52 W13       29.85F
RALEIGH NC     SUNNY     49  43  80 CALM      30.03R
ATLANTA GA     SUNNY     52  43  71 NW10      30.07R
NEW ORLEANS LA PTCLDY    59  51  75 CALM      30.14R
OKLAHOMA CITY  CLEAR     58  55  90 S7        30.06S FOG
ALBUQUERQUE NM PTCLDY    52  26  36 N8        30.29S
SALT LAKE CITY CLEAR     54  30  40 SE10      30.07R
LOS ANGELES CA PTCLDY    65  62  90 NW3       29.99R
BOISE ID       PTCLDY    42  40  92 SE6       29.84S FOG
SEATTLE WA     PTCLDY    47  45  93 N3        29.48F
$$

*** WEATHER ACROSS MANITOBA...SASKATCHEWAN AND ONTARIO ***
                ***ONTARIO***

CITY           SKY/WX    TMP DP  RH WIND       PRES   REMARKS
GERALDTON      MOCLDY    45  36  70 NW20      29.48R
THUNDER BAY    PTCLDY    50  32  50 W16G30    29.67R
SIOUX LOOKOUT  PTCLDY    45  32  61 W8G18     29.70R
TORONTO        PTSUNNY   52  46  82 S6        29.76F
BIG TROUT LK   LGT RAIN  41  37  87 NW25G39   29.36R
PICKLE LAKE    LGT RAIN  41  32  70 W24G37    29.51R
DRYDEN         CLEAR     43  32  65 W16G24    29.75R
KENORA         CLEAR     41  32  70 W9G18     29.83R
$$
                *** MANITOBA***

CITY           SKY/WX    TMP DP  RH WIND       PRES   REMARKS
BRANDON        PTCLDY    34  28  80 W9        30.03R
DAUPHIN        CLEAR     37  28  70 W12       29.96R
ISLAND LAKE    MOCLDY    37  32  81 NW18G31   29.64R
PILOT MOUND      N/A     37  28  70 W8          N/A
THE PAS        MOCLDY    37  28  70 W18G26    29.83R
THOMPSON       FLURRIES  34  30  86 W13G22    29.64R WCI  25
WINNIPEG       PTCLDY    39  30  70 W14       29.95R
LYNN LAKE      FLURRIES  30  27  86 W15G24    29.67R WCI  19
CHURCHILL      LGT RAIN  37  37 100 NW9       29.40R FOG
GILLAM         CLOUDY    37  36  93 W22G30    29.50R FOG
$$
                ***SASKATCHEWAN***

CITY           SKY/WX    TMP DP  RH WIND       PRES   REMARKS
ESTEVAN        PTCLDY    28  27  93 S6        30.10S WCI  22
KINDERSLEY     PTCLDY    28  25  86 CALM      30.05S
LLOYDMINSTER   CLEAR     25  21  86 W10       30.01R WCI  15
PRINCE ALBERT  PTCLDY    34  27  75 W10       29.96R
REGINA         PTCLDY    27  25  93 VRB2      30.08R



USA.gov is the U.S. government's official web portal to all federal, state and local government web resources and services.